Date String (YYYY-MM-DD hh:mm:ss) UTC,Instrument flags,absolute air pressure of the measurement (hPa),sample flow rate (lpm),inlet stack bypass flow (lpm),air temperature of the measurement (°C),ambient temperature measured by the external sensor (°C),aerosol sample conditioner tube jacket temperature (°C),OPC LED temperature (°C),internal box temperature (°C),relative humidity of the measurement (%),span deviation,mass concentration of particles derived from Lorenz-Mie calculation of OPC scattering (μg/m³),mass concentration of particles derived from Lorenz-Mie calculation of OPC scattering (μg/m³),mass concentration of particles derived from Lorenz-Mie calculation of OPC scattering (μg/m³)
DateTimeUTC,F1_M11,P_M11,Q1_M11,Q2_M11,T1_M11,T2_M11,T3_M11,T4_M11,T5_M11,U1_M11,ZSPAN_M11,X0_M11,X2_M11,X1_M11
2023-12-05 13:00:00,SystemResetWarning,0835.1,5.00,000.00,020.6,019.8,000.0,029.0,021.9,20.7,0000.0,0005.32,0003.19,0002.84
2023-12-05 13:01:00,SystemResetWarning,0835.1,5.00,000.00,020.6,019.8,000.0,029.0,021.8,20.7,0000.0,0005.43,0003.21,0002.87
2023-12-05 13:02:00,SystemResetWarning,0835.0,5.01,000.00,020.6,019.8,000.0,029.0,021.9,20.8,0000.0,0005.43,0003.23,0002.90
2023-12-05 13:03:00,SystemResetWarning,0835.0,5.01,000.00,020.6,019.8,000.0,029.0,021.9,20.7,0000.0,0005.48,0003.24,0002.91
2023-12-05 13:04:00,SystemResetWarning,0835.0,5.00,000.00,020.6,019.8,000.0,029.0,021.8,20.7,0000.0,0006.38,0003.25,0002.93
2023-12-05 13:05:00,SystemResetWarning,0835.0,4.98,000.00,020.6,019.8,000.0,029.0,021.8,20.7,0000.0,0006.79,0003.26,0002.96
2023-12-05 13:06:00,SystemResetWarning,0835.0,4.99,000.00,020.6,019.8,000.0,029.0,021.9,20.5,0000.0,0006.85,0003.29,0002.97
2023-12-05 13:07:00,SystemResetWarning,0835.0,5.00,000.00,020.6,019.7,000.0,029.0,021.9,20.4,0000.0,0006.84,0003.31,0002.98
2023-12-05 13:08:00,SystemResetWarning,0835.0,5.02,000.00,020.6,019.7,000.0,029.0,021.9,20.4,0000.0,0007.70,0003.33,0002.99
2023-12-05 13:09:00,SystemResetWarning,0835.1,5.01,000.00,020.6,019.7,000.0,029.0,021.8,20.5,0000.0,0008.34,0003.37,0003.01
2023-12-05 13:10:00,SystemResetWarning,0835.1,4.99,000.00,020.6,019.7,000.0,029.0,021.8,20.4,0000.0,0008.29,0003.40,0003.03
2023-12-05 13:11:00,SystemResetWarning,0835.0,4.99,000.00,020.6,019.7,000.0,029.0,021.8,20.2,0000.0,0008.35,0003.42,0003.04
2023-12-05 13:12:00,SystemResetWarning,0835.1,5.00,000.00,020.6,019.7,000.0,029.0,021.8,20.0,0000.0,0008.34,0003.42,0003.05
2023-12-05 13:13:00,SystemResetWarning,0835.0,4.99,000.00,020.6,019.7,000.0,029.0,021.8,20.0,0000.0,0008.31,0003.42,0003.06
2023-12-05 13:14:00,SystemResetWarning,0835.0,5.01,000.00,020.6,019.7,000.0,029.0,021.8,20.2,0000.0,0008.30,0003.41,0003.02
2023-12-05 13:15:00,SystemResetWarning,0835.0,5.01,000.00,020.6,019.7,000.0,028.9,021.8,20.3,0000.0,0007.79,0003.36,0002.94
2023-12-05 13:16:00,SystemResetWarning,0835.1,5.01,000.00,020.6,019.7,000.0,029.0,021.8,20.1,0000.0,0007.48,0003.31,0002.85
2023-12-05 13:17:00,SystemResetWarning,0835.1,5.00,000.00,020.6,019.7,000.0,028.9,021.7,19.9,0000.0,0007.49,0003.28,0002.79
2023-12-05 13:18:00,SystemResetWarning,0834.9,5.00,000.00,020.5,019.7,000.0,028.9,021.7,19.7,0000.0,0007.51,0003.26,0002.78
2023-12-05 13:19:00,SystemResetWarning,0834.5,5.00,000.00,020.5,019.7,000.0,028.9,021.7,19.5,0000.0,0006.32,0003.19,0002.68
2023-12-05 13:20:00,SystemResetWarning,0834.5,5.00,000.00,020.5,019.6,000.0,028.9,021.7,19.3,0000.0,0004.76,0003.07,0002.53
2023-12-05 13:21:00,SystemResetWarning,0834.5,5.00,000.00,020.5,019.6,000.0,028.9,021.7,19.3,0000.0,0004.30,0002.89,0002.39
2023-12-05 13:22:00,SystemResetWarning,0834.5,5.00,000.00,020.5,019.6,000.0,028.9,021.7,19.4,0000.0,0003.99,0002.70,0002.25
2023-12-05 13:23:00,SystemResetWarning,0834.5,4.99,000.00,020.5,019.6,000.0,028.9,021.7,19.0,0000.0,0003.79,0002.61,0002.18
2023-12-05 13:24:00,SystemResetWarning,0834.6,5.00,000.00,020.5,019.6,000.0,028.9,021.7,18.8,0000.0,0003.63,0002.50,0002.09
2023-12-05 13:25:00,SystemResetWarning,0835.1,5.00,000.00,020.5,019.6,000.0,028.9,021.6,18.9,0000.0,0003.48,0002.40,0002.02
2023-12-05 13:26:00,SystemResetWarning,0835.1,5.02,000.00,020.5,019.6,000.0,028.9,021.6,19.2,0000.0,0003.81,0002.35,0001.96
2023-12-05 13:27:00,SystemResetWarning,0835.0,5.00,000.00,020.5,019.6,000.0,028.9,021.7,18.7,0000.0,0004.21,0002.26,0001.89
2023-12-05 13:28:00,SystemResetWarning,0834.9,5.00,000.00,020.5,019.6,000.0,028.9,021.7,18.1,0000.0,0004.13,0002.14,0001.79
2023-12-05 13:29:00,SystemResetWarning,0834.7,5.00,000.00,020.5,019.6,000.0,028.9,021.7,18.0,0000.0,0003.80,0001.93,0001.61
2023-12-05 13:30:00,SystemResetWarning,0835.1,5.00,000.00,020.5,019.6,000.0,028.9,021.7,18.7,0000.0,0003.81,0001.91,0001.59
2023-12-05 13:31:00,SystemResetWarning,0834.7,5.00,000.00,020.5,019.6,000.0,028.9,021.7,19.1,0000.0,0003.90,0001.91,0001.58
2023-12-05 13:32:00,SystemResetWarning,0835.0,5.00,000.00,020.5,019.6,000.0,028.8,021.7,18.9,0000.0,0003.59,0001.88,0001.56
2023-12-05 13:33:00,SystemResetWarning,0835.2,5.00,000.00,020.5,019.6,000.0,028.9,021.7,18.9,0000.0,0003.71,0001.87,0001.51
2023-12-05 13:34:00,SystemResetWarning,0834.8,5.01,000.00,020.5,019.6,000.0,028.8,021.7,19.0,0000.0,0004.42,0001.82,0001.47
2023-12-05 13:35:00,SystemResetWarning,0834.7,5.00,000.00,020.5,019.6,000.0,028.8,021.7,19.3,0000.0,0004.41,0001.78,0001.42
2023-12-05 13:36:00,SystemResetWarning,0834.7,5.01,000.00,020.5,019.7,000.0,028.8,021.7,19.5,0000.0,0004.29,0001.67,0001.33
2023-12-05 13:37:00,SystemResetWarning,0834.7,5.00,000.00,020.5,019.7,000.0,028.8,021.7,19.5,0000.0,0003.86,0001.53,0001.24
2023-12-05 13:38:00,SystemResetWarning,0834.8,5.00,000.00,020.5,019.7,000.0,028.8,021.8,19.2,0000.0,0004.06,0001.50,0001.20
2023-12-05 13:39:00,SystemResetWarning,0834.8,5.00,000.00,020.5,019.6,000.0,028.8,021.8,19.1,0000.0,0005.22,0001.59,0001.29
2023-12-05 13:40:00,SystemResetWarning,0834.7,5.00,000.00,020.5,019.6,000.0,028.8,021.7,19.3,0000.0,0005.85,0001.68,0001.37
2023-12-05 13:41:00,SystemResetWarning,0834.8,5.00,000.00,020.5,019.6,000.0,028.8,021.7,19.1,0000.0,0005.84,0001.66,0001.38
2023-12-05 13:42:00,SystemResetWarning,0834.8,5.01,000.00,020.5,019.7,000.0,028.8,021.7,19.0,0000.0,0005.95,0001.72,0001.42
2023-12-05 13:43:00,SystemResetWarning,0834.8,5.00,000.00,020.5,019.7,000.0,028.8,021.7,19.0,0000.0,0006.12,0001.83,0001.51
2023-12-05 13:44:00,SystemResetWarning,0834.7,5.00,000.00,020.5,019.7,000.0,028.8,021.7,19.3,0000.0,0006.12,0001.92,0001.64
2023-12-05 13:45:00,SystemResetWarning,0834.7,5.00,000.00,020.5,019.7,000.0,028.8,021.7,19.4,0000.0,0005.50,0001.98,0001.70
2023-12-05 13:46:00,SystemResetWarning,0834.7,5.00,000.00,020.5,019.7,000.0,028.8,021.7,19.3,0000.0,0005.44,0002.04,0001.73
2023-12-05 13:47:00,SystemResetWarning,0834.8,5.00,000.00,020.5,019.7,000.0,028.8,021.7,19.2,0000.0,0005.57,0002.15,0001.82
2023-12-05 13:48:00,SystemResetWarning,0835.3,4.99,000.00,020.5,019.7,000.0,028.8,021.7,19.3,0000.0,0005.70,0002.30,0001.98
2023-12-05 13:49:00,SystemResetWarning,0835.4,5.00,000.00,020.5,019.7,000.0,028.8,021.7,19.5,0000.0,0004.73,0002.35,0002.07
2023-12-05 13:50:00,SystemResetWarning,0835.3,5.00,000.00,020.5,019.7,000.0,028.8,021.8,19.9,0000.0,0003.55,0002.30,0002.03
2023-12-05 13:51:00,SystemResetWarning,0835.2,5.01,000.00,020.5,019.7,000.0,028.8,021.8,20.3,0000.0,0003.08,0002.30,0002.01
2023-12-05 13:52:00,SystemResetWarning,0835.4,5.00,000.00,020.5,019.7,000.0,028.8,021.8,20.4,0000.0,0003.13,0002.34,0002.04
2023-12-05 13:53:00,SystemResetWarning,0835.2,5.00,000.00,020.5,019.7,000.0,028.8,021.8,20.4,0000.0,0003.08,0002.38,0002.08
2023-12-05 13:54:00,SystemResetWarning,0834.9,5.00,000.00,020.5,019.7,000.0,028.8,021.8,20.4,0000.0,0003.13,0002.41,0002.09
2023-12-05 13:55:00,SystemResetWarning,0835.0,5.00,000.00,020.5,019.7,000.0,028.8,021.8,20.5,0000.0,0003.53,0002.40,0002.05
2023-12-05 13:56:00,SystemResetWarning,0835.0,5.01,000.00,020.5,019.7,000.0,028.8,021.8,20.6,0000.0,0003.97,0002.40,0002.02
2023-12-05 13:57:00,SystemResetWarning,0835.0,5.00,000.00,020.5,019.7,000.0,028.8,021.8,20.7,0000.0,0004.16,0002.46,0002.06
2023-12-05 13:58:00,SystemResetWarning,0835.1,5.00,000.00,020.5,019.7,000.0,028.8,021.8,20.7,0000.0,0004.89,0002.57,0002.14
2023-12-05 13:59:00,SystemResetWarning,0835.1,5.00,000.00,020.5,019.7,000.0,028.8,021.8,20.3,0000.0,0005.25,0002.70,0002.22
